Location: Unspecified
(47.4992°N, 121.7766°W)
Time: 02:45:58
(UTC-08:00)

Cosmos 2058 - Pass Details

Date: 03 February 2021
Orbit: 561 x 584 km, 82.5° (Epoch: 24 February)

Event Time Altitude Azimuth Distance (km) Brightness Sun altitude
Rises 19:57:11 0° 222° (SW) 2,782 6.9 -28.0°
Reaches altitude 10° 19:59:45 10° 237° (WSW) 1,884 6.1 -28.4°
Maximum altitude 20:03:02 22° 290° (WNW) 1,266 5.3 -29.0°
Drops below altitude 10° 20:06:20 10° 343° (NNW) 1,884 5.8 -29.5°
Enters shadow 20:08:50 - 358° (N) 2,751 6.5 -30.0°
